Regional Weather Roundup
Issued by NWS

Home | Current Version | Previous Version | Text Only | Print | Product List | Glossary Off
Versions: 1 2 3 4 5 6 7 8 9 10 11 12 13 14 15 16 17 18 19 20 21 22 23 24 25 26 27 28 29 30 31 32 33 34 35 36 37 38 39 40 41 42 43 44 45 46 47 48 49 50

000
ASUS43 KLMK 200302
RWRKY
KENTUCKY REGIONAL WEATHER ROUNDUP
NATIONAL WEATHER SERVICE LOUISVILLE KY
1100 PM EDT TUE SEP 19 2017

NOTE "FAIR" INDICATES FEW OR NO CLOUDS BELOW 12,000 FEET
WITH NO SIGNIFICANT WEATHER AND/OR OBSTRUCTIONS TO VISIBILITY.

KYZ001>023-026-027-061>063-070>075-200400-
WESTERN AND SOUTH CENTRAL KENTUCKY

CITY           SKY/WX    TMP DP  RH WIND       PRES   REMARKS
PADUCAH        CLEAR     73  68  84 S3        29.91R
HENDERSON      CLEAR     71  68  90 SE3       29.92
OWENSBORO      CLEAR     73  70  90 SE3       29.93S
HOPKINSVILLE   CLEAR     74  68  81 SE3       29.94R
BOWLING GREEN  CLEAR     71  71 100 E3        29.96R
GLASGOW        CLEAR     68  68  99 CALM      29.97S
$$

KYZ024-025-028>034-038-045-046-053-200400-
NORTH CENTRAL KENTUCKY

CITY           SKY/WX    TMP DP  RH WIND       PRES   REMARKS
LOUISVILLE/SDF CLEAR     71  68  90 SE3       29.95S
LOUISVILLE/LOU CLEAR     68  68 100 CALM      29.96S
FORT KNOX      CLEAR     69  69 100 CALM      29.95R FOG
$$

KYZ035>037-039>044-047>052-055>060-089>105-200400-
NORTHEAST KENTUCKY

CITY           SKY/WX    TMP DP  RH WIND       PRES   REMARKS
LEXINGTON      MOCLDY    70  66  87 E3        29.99R
COVINGTON      PTCLDY    66  66 100 CALM      29.97R
FRANKFORT      CLEAR     66  63  90 CALM      29.97R FOG
$$

KYZ054-064>069-076>088-106>120-200400-
SOUTHEAST KENTUCKY

CITY           SKY/WX    TMP DP  RH WIND       PRES   REMARKS
JACKSON        CLOUDY    70  68  93 VRB3      30.02R
LONDON         MOCLDY    70  66  87 CALM      30.02R
SOMERSET       NOT AVBL
MIDDLESBORO    CLOUDY    68  65  91 CALM      30.02S
MONTICELLO     PTCLDY    63  63 100 VRB5      30.02R FOG
$$





USA.gov is the U.S. government's official web portal to all federal, state and local government web resources and services.